Hourly Data Report for September 13, 2017

All times are specified in Local Standard Time (LST). Add 1 hour to adjust for Daylight Saving Time where and when it is observed.

DOAKTOWN AUTO RCS
NEW BRUNSWICK

46°35'06.090" N
66°00'35.071" W
43.00 m
8101201
71038
ADN

Download Data

Hourly Data (September 2017)
Hourly Data Report for September 13, 2017
Temp Definition
°C
Dew Point Temp Definition
°C
Rel Hum Definition
%
Wind Dir Definition
10's deg

Wind Spd Definition
km/h
Visibility Definition
km
Stn Press Definition
kPa
Hmdx Definition


Wind Chill Definition


Weather Definition


TIME
00:00 11.4 10.2 93 25 4   100.06     LegendNANA
01:00 10.2 9.4 94 24 3   100.07     LegendNANA
02:00 11.5 10.9 96 26 10   100.08     LegendNANA
03:00 9.7 8.8 95 24 3   100.07     LegendNANA
04:00 9.0 8.3 96 23 6   100.04     LegendNANA
05:00 9.2 8.6 96 24 7   100.07     LegendNANA
06:00 8.3 7.7 96 23 4   100.11     LegendNANA
07:00 10.1 9.5 97 25 5   100.17     LegendNANA
08:00 13.0 12.0 93 20 4   100.17     LegendNANA
09:00 18.5 13.9 75 20 7   100.16     LegendNANA
10:00 22.2 14.0 60 25 10   100.15 26   LegendNANA
11:00 23.9 12.2 48 26 12   100.11 26   LegendNANA
12:00 25.0 10.0 39 27 12   100.08 26   LegendNANA
13:00 26.1 9.0 34 25 18   100.05 27   LegendNANA
14:00 26.4 9.3 34 26 17   100.00 27   LegendNANA
15:00 26.8 8.3 31 25 14   99.95 27   LegendNANA
16:00 26.3 10.1 36 24 15   99.95 28   LegendNANA
17:00 25.5 10.0 38 25 14   99.95 27   LegendNANA
18:00 23.1 11.2 47 25 7   99.96 25   LegendNANA
19:00 18.5 12.3 67 27 5   99.97     LegendNANA
20:00 16.6 12.5 77 0 1   100.01     LegendNANA
21:00 14.9 11.8 82 0 1   100.03     LegendNANA
22:00 13.5 11.3 87   0   100.03     LegendNANA
23:00 12.9 11.2 89 0 1   100.04     LegendNANA

Notes on Data Quality.

Legend

  • E = Estimated
  • M = Missing
  • NA = Not Available
  • ‡ = Partner data that is not subject to review by the National Climate Archives
Date modified: